Wind_Speed
24 21 20 20 21 22 24 24 23 23 23 22 24 29 29 27 25 23 20 17 15 14 13 11 11 10 9 9 8 8 8 9 10 11 11 12 13 14 14 13 13 12 11 11 10 10 10 11 11 12 11 10 10 10 9 9 9 8 7 6 5 5 5 5 4 2 5 8 8 8 7 8 8 7 7 7 6 6 5 5 5 5 5 6 6
23 22 22 23 23 24 24 24 23 23 24 24 27 30 30 27 25 23 19 17 16 15 13 12 11 10 10 9 8 8 8 7 9 10 11 11 12 13 14 14 13 13 13 13 11 10 10 10 11 13 12 12 11 10 9 8 9 8 7 7 8 8 7 5 4 3 3 6 7 7 7 7 7 7 7 6 6 6 5 5 5 5 6 7 8
25 25 25 25 25 26 25 24 24 24 24 26 29 31 29 27 25 23 20 19 18 15 13 12 11 10 9 8 8 7 6 6 8 9 9 11 12 13 12 12 13 14 14 14 12 10 11 10 11 13 13 13 12 11 10 10 10 8 8 9 10 11 10 7 6 6 4 3 5 6 6 6 6 6 6 7 6 5 5 5 6 7 8 9 10
24 26 27 26 25 25 25 25 25 25 26 28 31 31 29 27 26 24 21 20 18 16 14 12 11 11 10 9 8 6 6 6 6 7 9 11 12 10 9 9 12 15 15 14 12 11 11 11 12 13 14 13 12 11 11 12 12 11 10 10 12 14 14 11 8 7 7 5 5 6 6 6 7 7 7 8 6 5 7 8 8 9 10 11 11
24 25 26 23 20 22 25 25 25 27 27 30 34 32 29 28 27 24 22 21 18 16 14 13 11 11 10 9 7 6 6 6 6 7 9 10 10 9 9 10 13 15 15 15 13 11 12 12 12 13 13 13 13 13 13 13 12 13 12 11 14 17 17 15 11 10 8 8 7 7 7 7 8 7 6 7 7 7 8 9 10 12 12 12 12
23 23 22 21 20 22 25 25 26 29 30 32 35 33 29 29 27 25 23 21 18 16 14 12 11 11 10 9 8 7 7 6 7 8 9 10 10 10 11 12 13 14 16 16 14 13 13 13 12 12 12 13 14 15 15 14 13 12 11 13 15 17 17 16 14 12 10 8 9 9 8 9 10 9 7 7 8 9 9 10 11 12 12 12 11
23 21 21 22 23 24 25 25 27 31 31 34 36 33 30 31 29 25 23 21 19 17 15 13 12 11 10 9 8 6 5 4 5 7 9 10 12 12 12 13 13 15 16 16 15 14 14 13 12 11 12 13 14 15 15 13 11 9 8 9 12 14 16 16 14 11 10 9 10 10 11 11 11 10 9 10 11 12 12 12 13 13 13 13 12
23 21 23 25 22 22 24 25 27 31 31 34 37 33 30 31 29 26 24 22 20 18 16 15 14 11 9 8 7 5 3 3 3 5 8 11 13 14 14 13 12 13 15 16 16 15 14 14 12 11 11 12 12 13 12 11 10 9 7 7 9 10 12 14 12 11 11 11 11 11 11 12 13 12 12 13 14 14 15 17 17 17 17 17 16
22 22 24 24 20 20 24 26 28 31 31 33 36 34 31 31 29 27 25 23 21 20 19 18 14 11 9 8 7 6 4 3 3 4 6 10 12 14 14 13 11 12 13 15 15 15 14 13 12 10 10 9 9 10 11 9 9 10 9 8 9 9 9 11 12 12 11 11 11 11 11 13 14 14 16 17 16 16 18 20 21 21 21 22 21
21 22 23 23 21 22 25 27 29 32 33 35 36 34 33 32 28 27 27 25 24 23 21 19 15 13 11 8 7 7 6 5 4 4 5 8 11 13 14 13 13 13 12 12 14 14 13 13 11 10 9 9 10 11 12 11 11 11 11 11 11 11 11 12 13 13 12 11 12 12 12 13 14 15 16 17 18 19 20 21 23 23 24 25 25
21 22 22 22 22 23 24 26 29 32 34 37 37 35 35 35 30 28 28 27 26 24 22 19 16 14 11 9 9 8 8 6 5 4 5 7 10 13 14 14 15 14 12 11 13 14 13 13 12 12 11 12 13 13 12 13 13 13 13 14 14 14 14 14 14 15 14 14 15 14 14 15 16 16 17 17 18 19 20 22 23 24 25 26 26
18 18 18 20 21 22 23 26 30 33 35 37 38 38 40 38 34 30 29 28 26 24 22 20 18 15 13 12 11 10 9 8 6 6 6 7 10 13 14 16 17 16 15 15 16 16 15 15 15 14 14 13 13 12 12 12 13 13 14 15 15 15 15 15 16 16 16 17 18 18 18 19 19 19 20 21 21 21 22 23 24 25 26 26 27
14 13 15 18 20 21 24 27 30 33 35 35 37 40 41 40 37 33 30 28 26 24 22 21 19 17 15 14 13 11 11 10 9 8 8 9 12 14 15 16 17 18 18 18 17 17 17 16 16 15 14 13 13 12 12 12 12 13 14 14 14 15 15 16 17 18 19 20 20 20 21 22 22 22 24 25 25 26 27 27 27 28 28 28 28
5 11 14 15 18 21 23 25 28 32 34 34 34 38 39 39 38 35 31 28 26 24 22 21 20 18 17 17 16 14 14 13 12 12 11 12 14 16 17 18 18 18 19 19 18 18 17 15 15 15 14 15 14 13 12 12 12 13 13 14 14 15 15 17 18 19 20 22 22 22 23 24 25 25 26 27 28 29 29 29 30 30 29 30 31
5 7 12 15 18 21 23 25 27 30 31 31 32 37 40 40 39 37 32 28 26 25 23 23 22 21 19 19 18 17 17 17 17 16 15 15 16 18 19 20 20 20 20 20 19 19 18 16 15 15 15 14 14 14 13 13 13 13 13 14 15 16 17 18 19 20 21 22 23 24 25 26 27 28 29 30 31 31 31 31 31 30 30 31 32
6 6 9 13 17 20 23 26 28 29 30 30 31 36 40 40 37 35 33 30 29 28 26 25 24 23 23 22 21 20 20 20 20 18 18 17 18 19 20 21 21 21 21 21 20 19 19 18 17 18 17 14 13 12 13 13 14 14 15 16 18 19 20 21 22 22 23 24 26 26 27 28 29 29 29 29 30 32 34 34 31 29 30 31 32
5 5 6 11 15 18 21 24 27 29 31 32 33 34 36 36 35 36 35 33 32 30 29 28 26 26 25 25 24 24 24 24 24 22 21 19 18 19 20 22 23 23 23 22 21 20 20 19 20 21 21 19 16 14 13 14 16 17 18 20 21 22 23 24 25 25 26 26 27 28 28 28 29 29 30 30 31 33 36 33 30 29 30 31 33
6 6 8 12 16 20 21 22 24 25 27 31 32 32 32 33 33 34 33 33 33 31 29 28 27 26 26 26 27 26 26 26 26 25 24 23 22 23 24 24 25 25 24 23 23 23 22 23 23 24 26 26 22 18 16 17 19 21 22 23 24 25 26 27 27 27 28 28 29 30 30 30 31 31 32 32 32 34 36 35 33 33 34 34 35
6 7 8 12 18 23 24 25 25 24 27 33 35 34 33 32 31 31 31 31 31 31 30 29 29 28 27 26 26 25 25 25 25 25 24 25 26 26 26 25 25 27 27 26 26 27 27 27 28 28 30 31 28 22 20 20 22 24 26 27 27 28 27 27 27 28 28 29 30 31 31 31 32 32 32 32 32 34 36 37 38 38 38 38 38
3 4 6 9 13 18 20 21 22 23 27 32 35 36 35 33 32 32 31 29 29 31 32 31 29 27 25 22 20 20 20 20 20 21 21 22 23 24 23 24 26 29 30 30 31 32 32 32 33 33 34 33 30 27 25 25 26 27 28 28 28 27 26 26 26 27 27 27 27 28 29 30 32 33 34 35 35 37 38 38 39 39 40 40 40
1 4 5 5 8 11 12 10 12 18 21 21 22 25 27 27 26 26 26 26 26 26 26 24 23 21 19 17 15 15 14 12 11 12 13 14 16 18 19 22 24 27 29 30 31 33 34 35 35 35 34 32 30 28 26 26 26 26 27 27 27 27 26 26 27 28 28 28 29 30 31 32 33 35 36 37 38 39 40 40 41 42 42 42 42
2 4 5 6 7 8 9 8 7 10 12 11 13 15 18 18 18 18 19 21 20 18 17 16 15 15 14 14 13 12 10 8 7 7 9 10 12 15 17 19 21 23 25 26 27 28 29 30 30 30 29 28 27 26 25 24 24 25 26 27 28 28 29 29 30 31 32 33 34 34 35 35 36 37 38 39 40 42 42 42 43 44 45 45 44
5 6 7 8 10 9 9 9 8 7 8 7 8 10 11 12 13 13 15 17 18 17 16 15 14 13 13 13 13 12 10 10 9 10 10 11 12 13 15 16 18 19 20 21 22 23 23 23 24 24 24 24 24 24 24 25 26 27 28 29 30 31 32 33 34 35 35 36 37 37 37 37 37 38 38 38 38 38 39 39 39 40 41 41 42
12 13 14 15 15 13 11 9 8 9 8 6 6 8 11 12 13 14 16 18 19 19 17 16 14 13 12 12 12 10 10 10 10 11 10 11 11 12 13 14 15 16 17 18 19 19 20 20 21 22 22 23 24 25 26 27 28 30 31 32 33 33 34 35 35 36 36 37 36 36 35 34 35 35 35 35 34 34 34 34 34 35 35 36 37
16 18 20 21 20 18 16 14 12 12 11 9 9 10 11 11 11 12 13 15 16 17 16 14 12 11 10 10 9 8 8 9 10 10 10 11 12 12 13 13 13 14 15 17 18 18 19 20 21 22 24 25 26 27 28 29 30 31 32 32 33 33 33 33 33 33 34 33 33 32 31 31 31 31 31 32 32 32 32 32 32 32 33 34 34
17 17 18 20 20 20 20 19 18 17 16 14 13 12 11 11 10 9 9 9 10 10 9 9 8 8 8 7 7 7 8 9 10 11 11 12 12 13 13 14 14 15 17 18 19 20 21 22 24 25 26 27 28 29 29 29 29 30 30 30 30 30 29 30 30 30 30 30 30 30 29 28 28 27 28 29 30 31 32 32 32 32 32 32 33
20 19 19 19 19 21 22 21 20 19 18 16 15 13 11 10 9 8 7 7 7 7 7 7 8 9 8 7 8 9 10 11 12 12 12 13 13 14 15 16 17 18 19 20 21 22 23 24 25 26 27 28 28 27 27 26 26 27 27 26 26 26 27 27 27 28 28 28 28 27 27 26 26 26 27 29 30 31 32 33 33 32 32 32 33
18 20 21 21 21 20 20 19 18 17 16 15 14 12 11 10 9 8 7 7 8 8 8 9 10 11 11 10 11 12 12 13 14 14 15 15 16 16 17 18 19 20 20 21 22 23 24 25 25 26 26 26 25 24 23 23 23 23 23 23 24 24 24 25 25 25 25 25 25 25 25 26 27 28 29 31 32 32 33 34 34 33 33 34 34
11 13 16 18 18 18 17 17 15 14 13 12 11 10 9 9 8 9 9 9 10 10 10 11 12 13 12 12 12 13 14 14 15 16 17 17 18 18 19 20 20 21 21 21 22 22 22 22 22 22 22 21 20 19 19 20 20 21 21 21 21 21 21 21 22 22 23 23 25 26 27 28 29 30 31 31 32 32 33 33 33 34 34 34 33
10 9 9 11 12 13 13 13 13 11 11 10 9 8 8 8 9 10 10 11 12 13 13 13 14 14 14 14 14 15 15 16 17 18 18 19 19 20 20 20 20 20 20 19 19 19 18 18 18 18 17 17 16 16 17 17 18 19 19 18 18 19 20 21 21 22 23 24 26 27 28 29 29 30 30 30 30 30 30 30 31 33 33 33 33
9 10 10 10 10 10 10 11 11 11 10 10 9 9 9 9 10 10 11 12 12 13 13 13 14 14 14 15 15 16 17 17 18 18 18 19 19 18 18 18 17 17 16 16 16 15 15 15 15 15 15 15 15 15 16 16 17 17 17 17 18 19 20 21 22 24 25 26 27 28 29 29 29 29 29 29 29 29 29 29 30 31 32 32 32
6 7 8 9 9 9 9 10 10 10 10 9 9 8 8 9 9 10 11 12 12 13 13 13 14 14 15 16 17 17 17 17 17 17 16 16 16 16 15 15 14 14 14 14 14 13 14 14 14 14 14 14 14 14 15 15 16 17 17 18 19 21 22 22 23 25 26 27 27 28 29 29 29 29 28 28 28 28 27 27 27 27 28 28 27
4 4 4 5 5 5 5 6 7 7 7 8 8 8 8 9 11 12 13 14 14 14 15 15 16 17 17 18 18 18 17 16 15 15 14 14 14 14 13 12 13 13 13 13 12 12 13 13 13 13 13 13 13 14 15 16 17 18 19 20 21 23 24 24 25 26 26 27 27 27 28 28 28 28 27 26 25 24 23 23 22 22 22 22 22
3 2 2 2 1 1 2 3 4 4 5 6 7 8 9 11 13 14 15 15 15 15 16 17 17 17 17 17 17 16 15 14 13 12 12 12 12 12 12 11 11 12 11 11 11 11 11 11 12 12 13 14 15 16 17 18 18 19 20 21 23 25 25 26 26 27 27 27 26 26 26 27 27 26 25 24 22 20 19 19 18 17 17 17 16
4 4 4 3 2 2 3 4 5 6 8 9 9 9 11 13 15 16 16 15 15 16 16 15 15 15 15 15 15 14 13 13 12 12 12 11 11 11 10 9 9 9 9 9 9 10 11 11 12 13 14 15 16 17 18 20 21 21 22 23 24 25 25 26 26 26 26 26 25 25 25 25 24 23 21 20 18 17 16 15 14 14 15 15 16
4 5 5 5 5 5 6 7 8 10 12 12 12 13 14 15 16 16 16 17 17 16 14 13 14 14 14 14 13 12 12 12 12 11 10 9 8 8 7 6 7 8 9 9 10 11 12 12 13 14 15 16 17 19 20 21 22 23 23 23 23 23 23 23 23 23 23 24 23 23 22 21 19 18 17 16 15 14 13 13 14 15 15 16 16
7 7 5 5 5 6 7 8 10 12 13 12 12 13 14 14 15 14 14 16 16 13 11 11 13 14 14 14 12 11 11 11 10 9 8 7 6 6 7 7 8 9 10 10 11 11 12 13 14 15 16 18 19 20 21 21 21 21 21 20 20 20 19 19 19 20 20 20 20 19 18 16 15 15 14 13 12 12 12 13 13 13 14 14 14
9 8 6 6 5 5 6 9 11 12 12 10 11 12 12 12 12 11 13 14 12 8 7 9 12 12 12 11 10 9 9 9 8 7 6 6 7 8 9 9 9 9 9 10 10 11 13 14 15 16 18 18 19 19 19 19 18 18 18 17 17 17 17 16 16 16 16 16 17 16 15 14 13 13 12 11 10 10 10 11 11 11 11 12 12
9 8 7 6 5 5 7 9 10 10 10 9 10 11 11 11 11 10 11 13 11 5 4 7 9 10 9 8 8 9 8 8 7 7 7 8 9 9 9 8 8 8 9 10 11 12 13 14 15 16 17 17 17 17 16 16 16 15 15 15 15 14 14 14 13 13 14 14 14 14 13 13 13 12 11 11 11 10 10 10 10 9 9 10 10
9 10 9 7 5 6 7 8 9 9 8 7 8 9 10 11 11 10 10 11 10 6 5 7 8 8 7 7 7 8 8 7 8 8 8 8 8 7 7 7 7 8 9 10 11 12 13 14 14 14 15 15 15 15 14 14 14 13 13 13 12 12 12 12 13 13 13 13 14 13 13 13 13 13 13 13 14 13 12 11 10 9 9 9 9
9 10 9 7 6 7 8 8 9 9 9 8 8 9 10 11 12 11 10 10 8 7 7 8 8 8 8 7 7 7 8 8 8 8 7 6 6 5 5 6 7 7 8 9 10 11 12 12 13 13 13 13 13 13 12 11 11 11 11 11 11 11 12 12 13 13 13 13 13 13 13 13 14 13 13 13 13 13 13 12 11 10 9 9 9
9 9 9 7 6 7 8 8 8 8 8 9 9 10 10 11 12 12 11 9 8 7 8 9 9 10 9 8 8 8 9 9 8 7 6 5 4 4 4 5 6 7 8 9 9 10 11 11 11 12 12 12 11 11 10 10 10 10 10 10 10 11 12 12 12 12 12 11 11 11 12 13 13 13 13 12 12 12 12 11 9 8 7 7 7
7 8 8 8 7 8 8 7 6 6 6 7 9 10 11 12 12 12 12 11 9 9 10 10 11 11 11 9 9 9 9 8 7 6 4 3 3 3 3 4 5 6 7 8 9 10 10 10 10 10 10 10 10 9 10 10 10 9 9 9 10 10 11 11 10 10 10 11 11 11 12 13 13 13 12 12 12 12 12 10 7 5 5 5 4
6 7 8 8 7 7 7 7 6 5 5 6 7 9 11 12 13 13 13 12 11 11 11 11 12 12 11 10 10 9 8 8 6 5 4 3 2 2 3 4 5 6 8 9 10 10 10 10 10 10 10 9 8 9 9 10 10 9 9 10 10 10 10 10 10 10 11 11 11 11 12 12 12 12 11 11 11 11 10 9 7 5 5 5 4
6 6 6 7 7 8 8 7 6 6 7 6 6 8 9 11 13 13 13 12 12 11 11 11 12 12 11 10 9 8 8 7 6 5 4 3 2 2 3 5 6 7 8 9 10 11 11 11 10 10 9 9 8 8 9 9 9 9 9 10 10 11 11 11 11 11 11 11 10 10 11 11 11 10 10 9 9 9 9 9 8 7 6 5 5
6 6 6 8 9 9 10 9 8 8 9 8 7 8 9 10 11 12 11 11 11 11 11 11 11 11 10 9 9 9 8 7 6 4 3 1 1 2 4 6 7 7 8 9 10 10 10 10 10 10 9 9 9 9 8 8 8 9 9 10 11 12 12 12 12 12 11 11 10 9 9 9 8 8 8 8 8 8 8 8 7 7 7 6 5
7 8 8 9 10 10 10 10 9 9 9 9 8 8 9 9 10 10 10 10 11 11 11 11 10 10 9 9 9 8 7 6 4 3 2 1 2 3 4 6 6 7 8 8 9 9 9 9 9 8 8 8 8 8 8 8 8 9 10 10 11 11 11 11 11 11 11 11 10 9 8 7 7 7 7 8 7 7 7 7 6 6 7 7 6
7 9 10 11 10 10 11 12 11 10 10 10 9 8 8 9 10 9 8 9 10 11 11 11 10 10 10 10 10 8 7 5 3 2 2 2 3 4 5 5 6 7 8 8 9 9 9 8 8 8 7 7 7 8 8 8 8 9 9 10 10 10 10 10 10 10 10 10 9 9 8 7 7 6 7 7 7 6 5 5 5 6 6 6 6
6 8 10 10 10 10 11 12 12 11 10 10 10 9 8 8 9 8 8 8 9 10 10 11 11 11 11 11 10 9 7 6 5 3 3 2 3 4 5 5 6 7 8 8 9 9 9 9 9 9 8 8 8 8 8 8 9 9 9 9 9 9 9 9 8 8 9 9 9 9 9 8 7 6 6 6 6 5 5 5 5 6 6 7 7
7 7 8 10 10 11 11 10 11 11 11 10 10 10 9 8 8 7 7 7 7 9 10 11 11 12 12 11 10 9 8 8 6 5 4 3 3 4 5 5 6 7 8 8 9 9 9 9 10 10 9 9 9 9 9 9 9 9 9 9 9 9 9 9 8 8 9 9 9 9 9 9 8 7 5 5 5 5 5 6 6 6 7 7 8
9 8 8 10 12 13 12 11 10 11 11 11 10 10 10 9 8 7 7 6 6 7 9 10 10 11 11 11 10 10 9 8 7 6 5 4 4 4 5 5 6 7 7 8 8 8 9 9 10 10 10 10 9 9 9 9 9 9 9 9 9 10 10 10 9 9 9 9 8 8 8 8 8 7 6 6 5 5 6 6 6 7 7 7 7
Wind_Direction
225 224 223 221 220 219 219 218 214 211 210 207 204 202 200 200 198 195 192 189 186 186 183 175 173 177 175 178 192 196 192 196 198 202 205 204 205 205 208 209 205 205 204 196 192 184 180 180 171 165 169 175 181 186 185 184 185 198 220 235 239 227 227 256 280 226 154 150 173 196 200 200 198 196 201 202 200 204 208 220 232 236 241 247 248
220 221 221 222 222 218 217 218 216 212 210 207 203 201 200 199 196 192 190 187 183 180 175 171 171 171 170 176 184 191 199 197 195 202 204 201 202 203 205 208 205 201 199 198 196 185 181 179 171 167 171 176 179 178 177 183 190 204 221 223 229 237 237 251 268 247 174 151 167 190 195 196 204 203 203 208 210 215 217 221 238 253 262 266 266
219 220 219 220 219 214 214 216 216 213 210 209 206 202 200 199 196 191 190 190 184 179 178 174 172 169 168 175 180 185 197 199 200 205 199 196 202 204 202 202 202 199 195 195 195 188 182 176 169 169 171 173 172 167 171 184 187 192 214 224 230 236 238 246 256 253 240 186 173 196 203 197 204 218 228 226 217 223 240 248 253 258 266 272 275
223 222 221 221 217 211 212 213 213 211 210 210 208 204 201 200 196 190 191 193 187 183 180 173 171 173 171 174 177 177 188 201 206 204 198 199 205 203 190 185 192 194 191 191 193 188 179 171 168 171 170 166 163 167 179 190 189 185 198 222 233 236 239 243 249 259 262 243 214 218 230 224 211 217 241 250 245 246 255 264 270 271 271 273 277
228 226 228 228 219 211 212 212 210 209 209 209 206 203 201 200 196 192 192 192 188 184 179 173 172 174 173 175 173 171 185 200 201 202 205 205 203 193 178 178 188 189 186 187 188 181 171 169 174 175 168 163 165 176 189 198 198 188 184 201 222 232 238 240 241 251 261 265 257 246 252 258 249 242 249 254 260 272 274 273 274 275 276 278 282
236 232 234 232 218 210 212 213 209 206 206 207 205 202 201 201 197 193 192 191 188 185 182 179 179 179 178 178 175 176 189 194 194 202 207 201 194 188 184 186 190 188 184 182 183 180 173 173 179 174 164 167 175 184 194 203 209 202 189 195 211 223 232 237 241 247 253 263 269 269 275 281 280 280 277 266 265 276 281 277 273 272 272 272 275
242 238 236 227 212 207 212 214 212 206 201 202 203 202 201 201 199 195 193 191 190 190 190 189 188 186 184 185 185 187 195 194 190 201 206 199 192 190 192 193 191 188 185 182 181 181 179 181 183 175 170 178 185 191 201 210 219 223 217 213 215 217 223 234 248 260 267 267 267 276 285 288 288 286 281 277 278 284 289 283 274 269 266 265 263
244 241 236 226 213 210 212 213 213 207 199 199 202 202 201 201 200 197 195 195 196 196 196 196 194 191 190 194 194 185 188 202 193 196 206 205 195 191 196 198 192 189 187 186 186 183 183 188 189 187 189 192 191 196 209 220 224 229 238 245 240 226 220 230 244 261 272 272 267 270 274 276 280 280 275 276 280 286 290 289 284 279 277 276 275
245 242 237 227 215 211 211 212 213 205 197 198 201 201 202 202 201 199 198 199 201 201 203 203 199 197 200 203 195 184 189 208 203 195 207 212 203 195 196 197 194 194 189 188 192 189 188 192 194 195 199 194 185 190 202 214 219 225 234 243 253 253 240 238 248 261 270 269 264 265 269 272 276 278 279 281 283 282 283 287 289 290 289 289 290
245 244 242 231 217 212 211 211 209 202 197 198 199 200 203 204 204 203 202 203 204 206 209 209 204 207 211 208 201 200 202 206 211 212 210 213 209 202 198 193 194 200 193 186 190 190 187 189 189 189 190 188 189 194 199 206 215 223 230 237 247 255 255 252 256 261 264 262 259 260 265 269 272 275 277 280 282 283 284 284 285 286 288 291 293
248 244 239 228 216 213 213 208 202 199 198 198 198 202 205 204 206 208 208 209 210 211 215 216 213 217 222 219 214 214 214 211 212 221 219 214 213 210 203 194 191 195 192 187 189 188 184 185 187 192 196 199 204 210 213 218 225 231 235 239 244 249 253 254 256 257 259 261 263 264 265 265 267 270 272 272 273 276 278 280 280 280 281 283 286
256 242 228 222 216 212 212 207 201 201 202 198 197 203 206 205 207 211 213 214 214 215 217 219 221 226 228 226 223 219 219 217 213 220 228 222 217 215 210 202 196 193 192 193 194 191 190 191 193 199 206 213 221 226 230 234 239 242 243 243 243 244 246 248 250 254 257 261 266 268 269 269 268 268 269 268 268 268 269 271 274 275 276 276 277
256 237 218 219 219 213 208 204 202 205 204 199 198 203 208 208 209 212 215 216 217 218 219 222 228 232 231 229 228 224 221 223 222 224 229 228 224 222 218 214 211 205 201 202 204 203 203 203 205 209 215 225 233 238 242 246 247 248 247 246 246 245 245 246 247 250 254 257 260 263 265 267 266 266 267 268 270 271 270 270 270 270 271 272 272
256 232 218 211 210 209 205 201 206 210 206 201 200 204 208 211 211 213 216 218 219 221 223 226 231 235 233 230 230 229 225 224 224 223 227 231 230 228 224 220 219 216 213 211 211 212 213 215 219 223 223 225 229 233 239 245 248 252 254 254 257 258 258 258 258 259 261 261 261 261 262 265 267 267 268 269 269 270 271 272 271 270 269 269 269
325 255 221 204 200 204 204 204 209 209 203 201 204 205 208 212 213 213 216 220 223 224 225 227 231 235 235 232 230 230 229 226 223 222 225 228 229 230 228 222 219 220 221 221 220 218 216 217 221 226 229 231 231 229 233 240 245 251 255 257 262 267 268 269 270 271 272 272 271 269 266 267 270 271 271 270 270 270 270 269 268 268 269 270 269
283 277 232 209 203 203 204 208 210 208 205 208 212 212 213 215 215 215 217 221 225 226 226 226 228 232 235 235 233 232 230 228 225 223 224 225 226 228 228 225 225 226 227 229 232 231 227 226 229 231 236 243 243 236 240 251 254 255 258 260 264 267 269 273 275 277 278 278 278 276 273 271 271 271 271 270 270 269 268 266 265 266 269 270 270
219 253 232 220 219 213 208 210 211 211 212 216 218 216 214 215 217 217 217 220 223 224 224 225 227 230 234 236 237 235 234 234 233 230 226 224 223 226 232 237 236 233 231 231 235 239 239 239 243 245 247 252 252 243 245 259 265 266 267 268 269 271 272 274 276 276 277 277 276 275 274 273 271 269 268 268 268 269 271 272 272 271 271 271 271
202 208 196 192 198 205 212 217 218 218 216 212 208 206 208 213 217 216 214 215 217 220 221 223 225 228 231 235 238 241 244 246 247 244 238 234 234 238 247 249 242 237 237 236 237 241 243 245 251 256 258 259 258 251 249 260 269 271 271 271 271 272 272 273 274 275 276 276 276 275 275 273 270 267 266 265 265 268 272 276 277 275 274 273 271
222 221 211 191 181 182 190 199 205 215 220 213 205 202 206 212 214 213 211 209 210 214 219 221 223 226 231 236 242 247 250 252 253 252 247 245 246 249 251 247 237 235 239 241 241 244 245 246 249 255 260 263 263 262 262 269 274 274 274 273 273 273 274 275 276 277 276 276 276 277 276 274 270 268 266 265 265 266 268 271 274 274 274 273 272
214 209 217 215 201 190 186 183 182 188 196 199 197 198 202 205 207 210 211 210 212 217 221 223 226 230 234 236 239 240 240 241 244 246 245 244 246 247 244 236 231 234 238 242 244 246 248 249 250 255 260 263 265 267 271 274 275 276 275 276 277 278 279 280 280 279 277 275 274 274 273 272 271 270 270 269 269 268 268 269 271 271 272 272 272
220 193 185 197 207 206 205 201 191 184 183 187 193 198 203 206 210 215 218 218 219 221 221 221 224 225 225 222 219 217 216 218 224 229 231 233 235 236 236 234 235 239 244 248 251 252 253 254 256 258 260 261 264 269 273 274 275 276 277 278 279 280 280 280 279 279 278 277 275 274 272 271 271 270 270 270 270 270 269 269 270 270 271 272 272
272 218 195 177 169 173 178 181 190 196 198 206 214 217 219 220 219 217 213 209 205 201 198 198 201 202 200 198 197 194 193 199 210 213 215 219 223 226 231 234 238 243 248 252 255 255 255 255 256 258 260 263 268 273 275 275 275 275 276 277 278 279 280 280 279 278 278 277 277 276 275 274 273 273 272 272 272 272 272 272 272 272 272 273 272
229 213 202 180 163 157 159 158 160 170 177 184 199 211 213 205 195 188 181 177 173 172 174 177 181 188 194 199 202 202 200 206 215 216 217 221 224 228 232 235 239 243 248 252 255 255 254 254 255 259 263 266 270 272 272 273 273 274 275 276 278 279 279 279 279 279 278 278 278 278 278 279 279 278 278 277 275 275 275 275 275 275 275 275 274
205 197 189 173 160 154 155 156 154 155 159 166 180 185 179 175 177 178 176 177 175 172 174 179 184 193 205 212 214 212 208 209 213 214 218 223 227 232 235 236 241 245 249 253 255 256 257 258 259 262 264 265 267 269 271 272 273 274 275 276 277 278 278 279 279 279 280 280 280 281 282 282 282 281 281 280 279 279 278 278 278 278 277 277 276
198 190 181 170 163 163 163 162 159 157 158 159 163 166 163 160 167 172 175 181 181 174 174 182 188 197 211 218 218 215 218 222 221 219 223 229 232 236 239 241 244 247 250 253 256 258 261 261 262 264 265 267 268 269 270 271 273 274 275 276 277 278 279 280 280 280 281 282 283 284 284 284 284 284 284 284 284 283 282 282 281 280 279 278 276
196 190 184 176 172 169 165 163 162 159 155 153 153 157 157 155 160 165 168 175 178 173 176 188 198 209 220 223 224 227 232 238 237 233 236 241 243 246 249 251 252 253 255 258 259 262 264 265 266 267 268 269 269 270 271 273 274 275 276 278 279 281 281 282 283 284 286 287 287 287 287 286 286 284 284 284 284 285 285 285 285 284 283 281 279
196 195 197 196 188 177 167 165 165 162 160 162 164 165 164 164 170 176 177 183 191 195 202 213 223 230 230 224 226 230 234 240 246 249 251 252 253 254 255 256 256 256 257 259 260 262 263 264 265 266 267 268 270 272 274 276 278 279 280 281 283 283 283 284 285 286 287 288 289 290 290 289 288 286 286 286 286 287 287 287 287 286 285 283 280
199 198 200 201 196 185 175 172 172 168 166 169 169 167 168 172 177 182 188 201 209 213 218 227 234 237 235 231 231 232 235 239 245 250 252 253 254 256 257 257 258 258 258 259 260 262 262 263 265 267 269 271 273 275 277 277 278 278 279 279 280 281 283 285 286 288 290 292 294 295 296 295 294 293 293 292 291 290 288 285 284 284 282 281 280
205 201 199 198 196 191 185 182 180 175 174 178 179 178 182 188 196 204 211 219 225 228 229 232 237 240 241 240 239 240 242 245 247 250 251 253 255 256 257 257 258 258 259 259 260 262 263 265 267 269 271 273 275 277 278 277 277 277 278 281 284 287 289 291 292 293 294 295 295 295 296 296 296 295 295 294 293 292 289 287 285 283 281 280 280
209 207 206 206 203 198 193 190 188 185 185 189 195 201 208 214 221 226 230 235 239 242 243 244 247 250 251 251 251 251 251 251 251 253 254 255 255 255 255 256 256 257 259 260 261 263 264 265 267 269 272 276 278 280 281 280 282 284 287 290 293 293 293 293 292 291 291 291 293 295 296 298 298 297 297 296 294 293 291 288 286 283 282 282 282
209 206 205 206 208 208 204 199 197 195 195 199 205 210 218 224 227 232 236 238 240 242 243 245 248 250 253 254 254 253 253 252 252 252 252 253 255 256 257 258 259 260 262 263 265 267 270 272 275 277 280 282 283 284 285 285 287 290 292 293 292 290 289 289 290 291 293 296 298 300 301 301 300 299 299 297 296 294 291 289 286 284 284 285 286
212 208 205 201 199 200 203 205 205 204 203 206 210 215 223 231 234 236 238 239 240 242 244 247 249 250 251 253 252 252 252 252 252 252 253 254 255 256 257 260 263 265 266 268 271 275 277 278 280 280 279 279 280 282 283 285 288 291 292 292 291 291 291 292 294 296 298 300 301 302 302 303 302 302 301 300 298 296 294 292 290 289 289 290 292
218 218 217 215 206 197 198 206 211 213 212 212 212 216 225 233 236 237 238 240 241 242 243 245 247 248 249 251 251 252 251 250 250 250 250 251 254 256 259 263 265 266 267 269 271 271 271 272 274 276 277 279 282 284 286 288 291 294 295 295 294 294 295 296 297 298 300 301 302 303 303 303 303 303 303 304 303 301 298 296 293 291 290 293 295
282 279 267 253 239 208 224 235 234 234 238 237 232 229 233 238 239 239 239 240 242 244 245 245 246 247 249 249 249 249 249 250 250 250 251 252 254 255 256 256 257 258 260 262 264 266 269 273 277 280 284 287 289 291 293 295 297 298 298 297 297 297 298 298 299 301 302 303 303 303 303 302 302 303 304 304 303 300 297 294 294 295 298 303 307
317 299 281 273 265 243 248 258 257 252 251 251 251 250 248 246 245 246 248 249 248 246 247 249 249 248 247 246 245 246 248 249 250 248 248 246 245 245 244 245 250 255 260 267 273 277 281 285 288 290 292 295 297 299 300 300 300 300 300 299 299 299 300 301 302 303 304 304 304 304 303 301 301 301 301 300 298 297 298 301 307 314 320 324 323
276 266 261 257 249 238 238 244 249 249 247 244 245 249 250 247 246 248 250 252 251 249 247 247 248 246 241 238 238 240 242 244 243 241 239 238 239 245 250 255 264 272 278 283 287 290 292 294 295 296 298 300 300 300 299 299 300 301 301 302 302 302 303 304 304 305 306 306 307 307 304 300 298 297 298 301 307 313 318 323 327 330 330 327 320
255 251 240 231 230 228 232 240 244 246 247 245 243 248 252 253 252 251 249 250 251 249 243 240 240 238 233 231 231 232 234 238 238 236 238 244 250 261 271 277 282 287 290 291 293 294 296 296 297 297 298 298 299 300 301 303 305 305 306 307 307 307 308 309 309 310 312 312 312 309 304 300 299 302 309 321 332 337 338 336 333 329 324 317 309
266 263 248 234 225 213 221 234 237 237 239 241 242 246 250 254 254 251 252 256 257 249 235 235 235 232 228 229 232 231 231 235 237 239 246 258 269 278 284 288 289 290 291 293 294 295 296 297 297 298 300 302 304 307 310 311 312 312 313 315 315 315 315 315 317 319 321 321 319 315 311 312 315 319 326 334 339 342 345 344 342 335 324 313 306
284 282 274 259 240 223 227 237 240 238 235 235 241 246 248 250 248 244 248 257 264 260 235 235 239 237 230 225 228 233 235 237 243 251 261 270 277 281 283 284 285 287 290 293 295 297 299 302 303 306 309 312 315 318 320 320 320 321 322 322 321 320 320 322 326 329 332 334 336 335 332 331 330 329 328 325 324 328 333 337 340 340 330 319 313
290 290 289 283 266 250 244 247 252 254 250 245 251 255 254 254 255 253 250 256 264 263 242 236 243 245 235 217 214 226 236 239 245 256 265 268 270 271 273 279 286 292 296 299 302 305 308 311 313 317 320 323 326 327 329 329 329 329 328 324 321 322 326 331 334 337 340 344 346 346 342 335 330 328 327 322 320 319 318 317 319 320 317 313 310
290 294 296 293 279 267 262 259 260 264 268 266 262 260 257 258 263 265 264 264 266 259 245 241 243 245 241 228 219 227 239 248 254 256 255 252 254 263 275 286 294 300 304 308 312 315 317 320 322 325 329 333 336 337 338 338 335 331 328 325 324 328 335 338 337 337 341 344 345 344 340 333 328 328 328 323 318 314 311 309 309 309 307 307 305
284 291 294 291 278 269 269 269 266 268 273 274 270 265 261 261 264 266 265 261 254 244 242 244 245 244 242 238 236 241 248 251 249 243 237 238 251 270 285 295 303 309 314 318 321 323 325 327 330 333 337 342 345 346 349 348 341 334 331 330 331 334 338 339 337 335 335 336 338 339 337 331 330 332 333 327 321 318 319 322 322 316 311 312 311
274 284 294 292 277 269 271 275 275 275 272 268 265 259 255 255 259 260 259 254 245 238 236 240 244 245 241 238 241 244 242 233 223 218 221 235 254 275 295 309 317 322 326 329 331 332 334 337 338 340 343 347 350 353 356 356 350 343 338 335 334 334 335 333 330 329 329 330 333 335 333 329 331 334 333 330 327 325 329 337 342 333 322 323 323
266 278 293 297 286 278 278 277 282 295 297 280 262 254 250 252 255 256 255 253 247 239 236 237 240 242 241 239 236 229 217 207 205 206 211 224 249 284 313 328 338 341 342 343 345 346 346 347 347 344 343 345 348 350 353 355 354 350 344 339 335 333 332 330 328 329 330 331 332 334 331 330 333 334 331 332 334 333 335 345 355 354 342 335 328
252 258 281 297 297 291 291 294 306 318 317 302 277 262 257 256 257 256 253 248 242 239 238 237 236 238 239 234 223 208 197 193 196 199 203 217 256 320 347 356 360 360 359 357 356 354 353 352 350 346 340 335 335 338 342 344 343 340 337 335 333 331 331 330 328 328 329 329 331 331 329 330 332 331 329 335 343 344 344 350 355 353 348 342 329
247 247 273 294 296 292 296 308 321 321 313 302 289 282 277 272 271 269 260 248 238 235 234 234 236 239 233 217 202 194 191 189 188 191 195 202 11 21 18 15 14 12 10 7 4 0 357 354 351 349 343 333 326 325 326 325 324 324 324 327 329 329 329 330 329 328 329 330 330 328 326 326 328 328 329 336 343 344 344 346 345 344 346 350 347
249 244 261 282 291 292 296 307 316 317 312 304 294 287 286 286 286 282 270 254 242 236 234 235 237 233 217 197 186 186 186 181 179 179 175 113 58 45 36 29 26 22 19 17 15 10 5 359 352 349 345 336 329 325 322 320 320 322 323 325 327 327 328 330 331 332 332 331 330 327 324 324 325 326 327 331 334 334 334 335 336 341 347 351 351
241 237 252 271 283 287 291 300 310 318 321 317 306 294 290 292 296 294 281 260 243 235 235 236 228 211 193 182 180 180 176 168 164 162 148 104 73 62 52 41 37 34 30 26 24 20 16 11 4 356 350 345 340 337 335 333 330 328 327 327 327 327 328 330 331 331 330 330 331 333 333 331 331 330 328 329 332 336 337 338 342 349 352 349 344
246 237 247 261 270 276 286 299 309 314 318 319 314 307 303 300 301 304 298 275 247 234 233 228 209 189 179 178 179 175 166 163 164 159 140 116 94 80 68 53 46 43 38 33 30 26 23 21 18 13 8 2 356 351 348 344 341 337 335 333 333 333 333 334 335 336 337 338 339 342 343 343 343 341 338 336 340 347 354 358 356 353 347 339 335
275 252 246 251 258 266 277 289 299 305 312 318 317 313 311 310 310 313 312 294 258 234 226 216 195 181 179 181 179 172 166 166 168 158 139 124 107 92 80 67 56 48 42 38 34 30 26 25 24 22 19 16 12 9 6 2 359 357 354 352 350 349 348 349 351 353 354 354 353 352 352 352 354 356 358 358 357 357 357 356 349 343 340 338 337
282 269 261 256 255 259 265 271 278 290 302 311 311 307 307 312 317 319 317 305 277 239 220 207 193 183 182 181 176 170 168 167 163 151 142 133 118 101 87 73 64 57 48 43 38 32 28 27 26 24 23 21 18 17 15 13 12 11 10 8 7 5 4 6 6 5 6 7 7 5 2 0 360 2 4 5 2 358 353 351 346 343 345 350 350
Height
3113 3114 3116 3116 3116 3116 3117 3118 3119 3120 3121 3123 3125 3127 3129 3131 3133 3135 3136 3137 3138 3139 3140 3140 3141 3142 3142 3143 3144 3144 3145 3146 3146 3147 3147 3148 3149 3149 3150 3151 3152 3152 3153 3155 3155 3156 3158 3158 3159 3160 3161 3162 3163 3164 3165 3166 3166 3166 3167 3167 3167 3169 3169 3170 3170 3171 3171 3171 3172 3172 3172 3173 3173 3173 3173 3173 3173 3174 3174 3174 3175 3175 3175 3175 3175
3111 3112 3113 3113 3113 3114 3116 3117 3118 3119 3120 3122 3124 3126 3128 3130 3132 3134 3136 3137 3137 3138 3139 3140 3140 3141 3142 3142 3143 3143 3144 3145 3146 3146 3147 3147 3148 3148 3149 3149 3150 3151 3152 3153 3154 3155 3157 3158 3159 3159 3160 3161 3162 3163 3164 3165 3166 3166 3166 3166 3167 3168 3169 3169 3170 3170 3170 3171 3171 3171 3172 3172 3172 3172 3173 3173 3173 3173 3173 3174 3174 3174 3174 3174 3174
3108 3108 3108 3108 3108 3110 3113 3115 3116 3118 3119 3121 3122 3124 3127 3129 3132 3134 3135 3136 3137 3137 3138 3139 3140 3140 3141 3142 3142 3143 3143 3144 3145 3145 3146 3147 3147 3147 3148 3148 3149 3150 3151 3152 3153 3154 3156 3157 3158 3159 3159 3160 3161 3163 3164 3164 3165 3166 3166 3166 3166 3167 3168 3169 3169 3170 3169 3170 3170 3171 3171 3172 3172 3172 3172 3172 3173 3172 3172 3172 3173 3173 3173 3173 3173
3105 3104 3103 3104 3104 3108 3111 3112 3114 3116 3117 3119 3121 3123 3126 3129 3131 3133 3134 3135 3136 3136 3137 3138 3139 3140 3140 3141 3141 3142 3142 3143 3144 3145 3145 3146 3146 3146 3147 3148 3148 3149 3150 3151 3152 3153 3155 3156 3157 3158 3159 3160 3161 3162 3163 3163 3164 3165 3165 3166 3166 3167 3167 3168 3169 3169 3169 3169 3170 3170 3170 3171 3172 3172 3172 3171 3172 3172 3172 3172 3172 3172 3172 3172 3172
3101 3100 3100 3102 3104 3105 3108 3110 3112 3114 3115 3117 3118 3121 3125 3128 3130 3132 3133 3134 3134 3136 3137 3137 3138 3139 3140 3140 3141 3141 3142 3142 3143 3144 3144 3145 3145 3146 3147 3147 3147 3148 3149 3151 3152 3153 3154 3155 3156 3158 3158 3159 3160 3161 3161 3162 3162 3163 3164 3165 3166 3166 3166 3167 3168 3168 3168 3168 3168 3169 3169 3170 3170 3171 3171 3170 3170 3170 3171 3171 3171 3171 3171 3171 3171
3096 3096 3098 3100 3100 3101 3104 3107 3109 3110 3112 3114 3117 3120 3124 3127 3129 3130 3131 3132 3134 3135 3136 3137 3137 3138 3139 3139 3140 3140 3141 3141 3142 3143 3144 3144 3145 3145 3146 3146 3146 3147 3149 3150 3151 3152 3154 3155 3156 3157 3158 3158 3159 3160 3160 3160 3160 3162 3163 3164 3165 3165 3165 3166 3167 3167 3168 3167 3167 3167 3168 3167 3167 3168 3168 3168 3168 3168 3168 3169 3169 3168 3168 3169 3169
3093 3093 3094 3094 3095 3096 3101 3104 3106 3107 3109 3111 3115 3119 3122 3125 3127 3129 3130 3131 3133 3134 3135 3136 3136 3137 3138 3139 3139 3140 3140 3141 3142 3142 3143 3144 3144 3145 3145 3145 3146 3146 3148 3149 3150 3152 3153 3154 3155 3156 3157 3158 3158 3159 3159 3159 3160 3161 3163 3164 3164 3164 3164 3164 3165 3165 3166 3166 3166 3165 3165 3165 3165 3165 3165 3165 3165 3165 3165 3166 3166 3166 3166 3166 3167
3091 3092 3091 3091 3092 3094 3098 3101 3102 3105 3107 3109 3113 3117 3120 3123 3125 3127 3128 3130 3132 3133 3133 3134 3135 3136 3137 3138 3138 3139 3140 3141 3141 3142 3143 3143 3144 3144 3144 3145 3145 3146 3147 3148 3149 3150 3152 3153 3154 3155 3156 3157 3158 3159 3159 3159 3160 3161 3162 3163 3163 3164 3164 3164 3164 3164 3164 3164 3164 3164 3164 3164 3163 3163 3163 3163 3163 3163 3163 3162 3163 3163 3163 3163 3163
3090 3090 3089 3090 3091 3093 3096 3098 3100 3103 3105 3107 3112 3115 3118 3121 3123 3125 3127 3128 3130 3130 3130 3132 3134 3135 3136 3137 3138 3138 3139 3140 3140 3141 3142 3143 3143 3144 3144 3144 3145 3145 3146 3147 3148 3149 3151 3152 3153 3155 3155 3156 3157 3158 3159 3159 3160 3161 3161 3162 3162 3162 3163 3163 3163 3163 3163 3163 3163 3163 3163 3163 3162 3162 3161 3161 3161 3161 3161 3160 3160 3160 3159 3159 3159
3087 3088 3088 3090 3091 3091 3093 3096 3099 3101 3103 3105 3110 3114 3116 3118 3121 3123 3125 3125 3126 3127 3128 3130 3132 3134 3135 3136 3137 3138 3138 3139 3140 3140 3141 3142 3143 3143 3143 3144 3144 3144 3145 3146 3147 3148 3150 3151 3152 3153 3154 3155 3156 3157 3157 3158 3159 3159 3160 3160 3161 3161 3161 3161 3161 3161 3161 3161 3161 3162 3161 3161 3161 3161 3161 3160 3159 3159 3158 3158 3157 3157 3156 3155 3155
3084 3086 3086 3087 3088 3090 3092 3094 3097 3100 3101 3104 3109 3112 3113 3116 3118 3120 3121 3122 3124 3126 3128 3129 3131 3132 3134 3135 3136 3137 3137 3138 3139 3139 3140 3141 3142 3143 3143 3143 3143 3144 3144 3145 3146 3147 3149 3150 3151 3152 3153 3153 3154 3155 3156 3157 3158 3158 3158 3159 3159 3159 3159 3159 3159 3159 3159 3160 3159 3160 3160 3159 3159 3159 3159 3159 3158 3158 3157 3156 3155 3155 3154 3153 3153
3082 3083 3084 3085 3087 3089 3091 3093 3096 3098 3099 3102 3106 3108 3110 3113 3115 3117 3119 3121 3123 3125 3126 3128 3130 3131 3132 3133 3134 3135 3136 3137 3138 3139 3139 3140 3141 3142 3142 3142 3142 3143 3143 3143 3144 3146 3147 3148 3149 3149 3150 3151 3152 3153 3154 3155 3156 3156 3157 3157 3157 3157 3157 3157 3157 3157 3158 3158 3158 3158 3157 3157 3157 3157 3156 3156 3156 3156 3155 3154 3153 3152 3152 3151 3150
3080 3082 3083 3084 3086 3088 3089 3092 3094 3096 3098 3101 3103 3105 3108 3111 3113 3115 3117 3120 3122 3123 3125 3127 3128 3129 3131 3132 3133 3134 3135 3136 3137 3137 3138 3139 3140 3140 3140 3141 3141 3141 3141 3142 3143 3144 3145 3146 3147 3147 3148 3150 3151 3152 3153 3153 3154 3154 3154 3154 3155 3155 3155 3155 3155 3155 3155 3155 3155 3155 3155 3154 3154 3154 3153 3152 3152 3152 3151 3151 3150 3149 3149 3148 3147
3081 3081 3082 3083 3085 3086 3088 3091 3093 3094 3097 3100 3102 3103 3106 3109 3111 3113 3116 3118 3120 3122 3123 3125 3126 3127 3129 3130 3131 3133 3134 3134 3135 3136 3137 3138 3138 3138 3139 3139 3140 3140 3140 3141 3142 3143 3144 3145 3146 3147 3147 3148 3149 3149 3150 3151 3152 3152 3152 3153 3153 3153 3153 3153 3153 3153 3153 3152 3152 3153 3152 3151 3151 3151 3150 3149 3149 3148 3147 3146 3146 3145 3144 3144 3143
3080 3081 3081 3082 3084 3086 3088 3090 3092 3093 3096 3098 3100 3102 3105 3107 3109 3112 3114 3116 3118 3119 3121 3122 3123 3125 3126 3127 3129 3130 3131 3132 3133 3134 3135 3135 3136 3137 3137 3138 3138 3139 3139 3140 3140 3141 3142 3144 3145 3145 3146 3146 3146 3147 3148 3149 3149 3150 3151 3151 3151 3151 3150 3150 3150 3150 3150 3149 3149 3149 3149 3149 3148 3147 3147 3146 3145 3144 3142 3141 3140 3140 3140 3139 3138
3081 3081 3081 3082 3084 3085 3087 3089 3091 3093 3095 3097 3099 3100 3103 3105 3108 3110 3112 3114 3115 3117 3118 3119 3121 3122 3123 3125 3126 3128 3129 3130 3131 3131 3132 3133 3133 3134 3135 3136 3137 3137 3138 3139 3139 3140 3141 3142 3143 3143 3144 3144 3144 3144 3145 3146 3146 3147 3147 3148 3148 3147 3147 3147 3146 3146 3146 3146 3145 3145 3145 3145 3144 3143 3142 3141 3140 3139 3136 3134 3134 3134 3134 3133 3133
3082 3081 3081 3082 3084 3085 3087 3089 3090 3092 3094 3096 3097 3098 3100 3103 3105 3107 3108 3110 3112 3113 3115 3117 3118 3120 3121 3122 3123 3125 3126 3127 3128 3129 3129 3130 3131 3132 3133 3134 3135 3135 3136 3137 3138 3139 3140 3141 3142 3142 3142 3142 3142 3141 3142 3142 3143 3143 3144 3144 3144 3144 3143 3143 3143 3142 3142 3142 3141 3140 3140 3140 3139 3138 3138 3137 3136 3134 3131 3130 3131 3130 3128 3127 3127
3083 3083 3082 3083 3083 3084 3086 3088 3089 3090 3091 3092 3094 3096 3098 3100 3103 3104 3105 3106 3109 3111 3113 3114 3116 3117 3118 3119 3120 3121 3123 3124 3125 3126 3127 3127 3128 3129 3130 3131 3132 3133 3134 3135 3136 3137 3138 3139 3139 3140 3140 3140 3139 3139 3139 3139 3140 3140 3140 3140 3139 3139 3139 3139 3139 3138 3138 3137 3136 3136 3135 3135 3134 3134 3133 3132 3131 3130 3127 3127 3127 3125 3123 3122 3122
3083 3083 3084 3084 3084 3084 3085 3086 3087 3088 3089 3090 3091 3094 3096 3098 3100 3101 3102 3103 3105 3108 3110 3111 3112 3114 3115 3116 3117 3118 3119 3120 3121 3122 3123 3124 3125 3126 3126 3127 3128 3130 3131 3131 3132 3133 3134 3135 3136 3137 3137 3137 3137 3136 3136 3136 3136 3135 3135 3135 3135 3134 3135 3135 3134 3134 3133 3132 3131 3131 3130 3130 3129 3129 3128 3127 3126 3125 3124 3122 3121 3120 3119 3118 3118
3084 3083 3083 3084 3084 3084 3085 3085 3085 3086 3087 3088 3090 3091 3092 3093 3095 3097 3098 3100 3102 3104 3106 3108 3109 3111 3112 3114 3115 3115 3115 3116 3117 3118 3119 3120 3121 3122 3123 3124 3125 3126 3127 3128 3129 3130 3131 3131 3132 3133 3133 3133 3133 3133 3132 3132 3131 3131 3130 3130 3130 3130 3130 3130 3129 3129 3128 3128 3127 3126 3126 3125 3125 3124 3123 3122 3121 3120 3119 3118 3116 3115 3114 3114 3113
3084 3084 3084 3084 3084 3084 3085 3085 3086 3086 3086 3087 3088 3089 3090 3091 3093 3095 3097 3098 3100 3101 3103 3105 3107 3109 3110 3111 3112 3113 3113 3114 3115 3116 3117 3117 3118 3119 3121 3122 3123 3124 3124 3125 3125 3126 3127 3128 3128 3129 3129 3129 3129 3129 3128 3128 3127 3127 3126 3126 3125 3125 3126 3125 3124 3123 3122 3122 3122 3121 3121 3120 3120 3119 3118 3117 3115 3114 3113 3112 3111 3110 3109 3108 3108
3085 3084 3084 3083 3083 3083 3084 3084 3085 3085 3086 3087 3088 3089 3090 3092 3093 3094 3095 3096 3098 3100 3102 3103 3105 3107 3108 3109 3110 3111 3112 3113 3113 3114 3115 3115 3116 3118 3119 3120 3121 3121 3121 3122 3122 3123 3124 3124 3125 3125 3125 3125 3125 3125 3124 3124 3124 3123 3123 3122 3121 3121 3120 3120 3119 3118 3117 3116 3115 3115 3115 3114 3114 3113 3112 3111 3110 3109 3108 3107 3106 3105 3104 3103 3103
3084 3084 3084 3083 3083 3083 3083 3083 3084 3084 3085 3086 3087 3088 3089 3091 3092 3093 3094 3095 3097 3099 3101 3102 3104 3105 3107 3108 3109 3110 3111 3112 3112 3113 3113 3114 3115 3116 3117 3117 3118 3119 3119 3119 3120 3120 3121 3121 3122 3122 3122 3122 3122 3121 3120 3120 3119 3119 3118 3117 3117 3116 3115 3114 3113 3112 3111 3110 3109 3109 3108 3108 3108 3107 3106 3105 3104 3103 3101 3101 3100 3099 3098 3097 3096
3083 3083 3083 3083 3083 3083 3084 3085 3085 3086 3086 3087 3088 3089 3090 3091 3092 3093 3094 3095 3096 3098 3099 3101 3103 3104 3105 3106 3107 3109 3110 3110 3111 3111 3112 3113 3114 3114 3115 3116 3117 3117 3117 3117 3117 3117 3118 3118 3118 3118 3118 3118 3118 3117 3116 3116 3115 3114 3114 3113 3112 3111 3110 3109 3108 3107 3106 3105 3104 3104 3104 3103 3102 3100 3098 3097 3097 3096 3095 3094 3093 3093 3092 3090 3090
3083 3083 3083 3082 3083 3083 3084 3085 3086 3087 3088 3089 3090 3091 3091 3092 3093 3094 3095 3096 3097 3098 3099 3101 3102 3103 3104 3106 3107 3109 3109 3109 3109 3110 3111 3111 3112 3113 3113 3114 3115 3115 3115 3115 3115 3115 3115 3115 3115 3114 3114 3113 3113 3112 3112 3111 3110 3110 3109 3108 3107 3106 3105 3104 3103 3102 3101 3101 3100 3100 3099 3098 3096 3095 3093 3092 3091 3090 3090 3089 3088 3087 3086 3084 3083
3084 3084 3084 3083 3083 3083 3083 3084 3085 3087 3088 3089 3090 3090 3091 3092 3093 3094 3096 3097 3098 3098 3099 3100 3102 3103 3104 3106 3107 3108 3108 3108 3108 3108 3109 3110 3110 3111 3111 3111 3112 3112 3112 3112 3111 3111 3111 3110 3110 3110 3109 3109 3108 3108 3107 3107 3106 3105 3104 3104 3103 3102 3101 3100 3099 3098 3098 3097 3096 3095 3094 3093 3092 3091 3089 3088 3087 3086 3085 3084 3082 3081 3080 3079 3077
3082 3083 3084 3084 3083 3083 3083 3083 3084 3085 3086 3087 3088 3089 3091 3092 3093 3094 3095 3096 3096 3097 3098 3099 3100 3102 3103 3105 3105 3106 3106 3105 3106 3106 3107 3107 3108 3108 3108 3108 3108 3108 3108 3108 3108 3107 3107 3106 3106 3105 3104 3104 3104 3104 3104 3103 3102 3101 3101 3100 3099 3098 3097 3096 3096 3095 3094 3093 3092 3091 3090 3089 3087 3086 3085 3084 3082 3081 3080 3079 3077 3076 3075 3073 3072
3082 3082 3082 3082 3082 3082 3082 3082 3083 3084 3085 3086 3088 3089 3090 3091 3092 3093 3094 3095 3096 3096 3097 3098 3099 3100 3101 3103 3103 3104 3104 3104 3104 3104 3105 3105 3105 3105 3105 3105 3105 3105 3105 3104 3104 3103 3103 3102 3102 3101 3101 3101 3101 3101 3101 3100 3099 3098 3097 3096 3096 3095 3094 3093 3092 3091 3090 3089 3087 3086 3085 3084 3082 3081 3080 3079 3078 3076 3075 3074 3072 3071 3069 3068 3066
3081 3081 3081 3082 3082 3082 3082 3082 3083 3084 3085 3086 3087 3088 3089 3090 3091 3092 3093 3094 3094 3095 3096 3096 3097 3098 3099 3100 3101 3101 3102 3102 3102 3102 3102 3102 3102 3102 3102 3102 3101 3101 3101 3101 3100 3100 3100 3099 3099 3099 3099 3099 3098 3098 3097 3096 3095 3094 3094 3093 3093 3092 3091 3090 3089 3088 3086 3085 3083 3082 3081 3079 3078 3077 3075 3074 3073 3071 3070 3068 3067 3065 3064 3063 3062
3079 3080 3080 3081 3081 3082 3082 3082 3082 3083 3084 3085 3086 3087 3088 3089 3090 3090 3091 3092 3092 3093 3094 3094 3095 3096 3096 3097 3098 3098 3099 3099 3099 3099 3099 3099 3099 3098 3098 3098 3098 3098 3098 3098 3097 3097 3097 3097 3097 3096 3096 3096 3095 3094 3093 3092 3092 3091 3091 3090 3089 3088 3087 3086 3085 3084 3083 3081 3080 3079 3077 3075 3074 3072 3070 3069 3068 3066 3065 3064 3062 3061 3059 3058 3057
3078 3079 3079 3080 3080 3081 3081 3081 3082 3082 3083 3084 3085 3086 3087 3087 3088 3089 3089 3090 3090 3091 3092 3092 3093 3093 3094 3094 3095 3095 3096 3096 3096 3096 3096 3096 3095 3095 3095 3095 3095 3095 3095 3095 3094 3094 3094 3094 3093 3093 3093 3092 3092 3091 3090 3089 3089 3089 3088 3087 3087 3085 3084 3083 3082 3080 3079 3077 3076 3074 3072 3071 3069 3067 3066 3064 3063 3061 3060 3059 3058 3056 3055 3053 3052
3078 3078 3078 3078 3079 3079 3080 3081 3081 3081 3082 3083 3084 3085 3086 3086 3087 3087 3088 3088 3088 3089 3090 3090 3091 3091 3091 3092 3092 3092 3093 3093 3093 3093 3093 3093 3093 3092 3093 3093 3093 3093 3092 3092 3092 3092 3091 3091 3091 3090 3090 3090 3089 3089 3088 3087 3087 3086 3085 3084 3083 3082 3080 3079 3078 3076 3075 3073 3072 3070 3068 3067 3065 3063 3061 3060 3058 3056 3055 3054 3053 3052 3050 3049 3048
3077 3078 3078 3079 3079 3079 3079 3080 3081 3081 3082 3082 3083 3084 3085 3085 3085 3086 3086 3086 3087 3087 3088 3088 3089 3089 3089 3089 3090 3090 3090 3090 3090 3090 3090 3090 3090 3090 3090 3091 3090 3090 3090 3090 3090 3090 3089 3089 3089 3088 3088 3087 3087 3086 3085 3085 3084 3083 3082 3080 3079 3077 3076 3075 3074 3073 3071 3070 3068 3066 3065 3063 3061 3059 3057 3055 3054 3052 3051 3049 3048 3047 3046 3045 3044
3077 3077 3078 3078 3079 3079 3079 3079 3080 3080 3081 3081 3082 3083 3083 3083 3083 3083 3083 3084 3085 3085 3085 3086 3086 3087 3087 3087 3087 3087 3087 3088 3088 3088 3088 3088 3088 3088 3089 3089 3089 3088 3089 3089 3088 3088 3088 3087 3087 3086 3085 3084 3084 3083 3082 3081 3080 3079 3078 3076 3075 3074 3073 3072 3070 3069 3067 3066 3064 3062 3061 3059 3057 3055 3053 3052 3050 3049 3047 3046 3045 3044 3044 3043 3042
3076 3076 3076 3077 3077 3078 3078 3078 3079 3079 3079 3080 3080 3081 3081 3081 3081 3081 3081 3082 3082 3082 3083 3083 3084 3084 3085 3085 3085 3085 3085 3085 3086 3086 3086 3086 3087 3087 3087 3087 3087 3087 3087 3087 3086 3086 3085 3084 3084 3083 3082 3081 3080 3080 3079 3078 3077 3076 3075 3073 3072 3071 3069 3068 3067 3065 3063 3062 3060 3059 3057 3055 3054 3052 3050 3049 3047 3046 3045 3044 3043 3042 3041 3040 3040
3075 3075 3075 3076 3076 3077 3077 3077 3078 3078 3078 3079 3079 3079 3079 3079 3079 3079 3080 3079 3079 3079 3081 3082 3082 3082 3082 3083 3083 3083 3084 3084 3084 3084 3084 3085 3085 3085 3085 3085 3085 3085 3084 3084 3083 3083 3082 3082 3081 3080 3079 3079 3078 3077 3076 3075 3074 3073 3071 3070 3069 3067 3066 3065 3063 3062 3060 3058 3057 3055 3054 3052 3051 3049 3048 3046 3045 3044 3043 3042 3041 3040 3040 3039 3038
3075 3075 3075 3075 3075 3076 3076 3076 3076 3076 3077 3077 3078 3077 3077 3076 3077 3077 3077 3077 3077 3078 3080 3080 3080 3080 3080 3081 3081 3081 3082 3082 3082 3082 3082 3082 3082 3082 3082 3082 3082 3082 3082 3081 3081 3080 3080 3079 3079 3078 3077 3076 3075 3074 3073 3072 3071 3069 3068 3066 3065 3064 3062 3061 3060 3058 3057 3055 3054 3052 3051 3050 3048 3047 3046 3045 3044 3043 3041 3040 3040 3039 3039 3038 3038
3073 3074 3074 3074 3075 3075 3075 3075 3075 3075 3076 3076 3077 3076 3075 3075 3075 3075 3075 3075 3076 3078 3078 3078 3077 3077 3078 3079 3079 3079 3079 3079 3080 3080 3080 3080 3080 3080 3080 3080 3080 3080 3079 3079 3079 3078 3078 3077 3076 3075 3074 3073 3072 3071 3070 3069 3067 3066 3065 3063 3062 3061 3060 3058 3057 3056 3055 3053 3052 3050 3049 3048 3047 3046 3045 3044 3043 3042 3041 3040 3039 3039 3038 3038 3037
3072 3072 3072 3073 3074 3074 3074 3073 3073 3074 3075 3076 3076 3075 3075 3074 3074 3074 3074 3073 3074 3076 3076 3075 3075 3075 3076 3077 3077 3077 3077 3078 3078 3078 3078 3078 3078 3078 3078 3078 3078 3078 3078 3077 3077 3076 3075 3074 3074 3072 3071 3070 3069 3068 3067 3066 3064 3063 3062 3061 3060 3059 3058 3056 3055 3054 3053 3052 3050 3049 3048 3047 3046 3045 3044 3043 3043 3042 3041 3040 3039 3038 3038 3037 3036
3071 3070 3070 3071 3072 3072 3072 3072 3071 3072 3073 3074 3074 3074 3073 3072 3072 3072 3072 3072 3072 3073 3074 3074 3073 3074 3074 3075 3076 3076 3076 3076 3076 3077 3077 3077 3077 3077 3077 3077 3077 3076 3076 3075 3075 3074 3073 3072 3071 3070 3069 3068 3067 3065 3064 3063 3062 3061 3060 3059 3058 3057 3056 3055 3054 3053 3052 3051 3049 3048 3047 3046 3045 3045 3044 3043 3042 3041 3040 3039 3038 3037 3037 3036 3035
3070 3069 3069 3070 3070 3070 3070 3070 3070 3070 3071 3072 3072 3072 3071 3070 3070 3070 3071 3071 3071 3071 3072 3072 3072 3072 3073 3074 3074 3074 3074 3075 3075 3075 3075 3075 3075 3075 3075 3075 3075 3075 3074 3073 3072 3071 3071 3070 3069 3068 3066 3065 3064 3063 3062 3061 3061 3060 3059 3058 3057 3056 3055 3054 3053 3052 3051 3050 3049 3048 3047 3046 3045 3044 3043 3042 3041 3040 3039 3038 3037 3036 3035 3034 3034
3069 3069 3069 3069 3069 3069 3068 3068 3069 3069 3069 3069 3070 3069 3069 3069 3068 3068 3069 3069 3070 3070 3070 3070 3071 3071 3071 3072 3073 3073 3073 3073 3073 3074 3074 3074 3074 3074 3074 3074 3073 3073 3072 3071 3070 3069 3068 3067 3066 3065 3065 3064 3063 3062 3061 3060 3059 3058 3058 3057 3056 3055 3054 3053 3052 3051 3050 3049 3048 3047 3046 3045 3044 3044 3043 3041 3040 3039 3038 3037 3036 3035 3034 3033 3032
3069 3068 3068 3068 3068 3067 3067 3068 3068 3068 3068 3068 3068 3068 3067 3067 3067 3067 3067 3068 3068 3069 3069 3069 3069 3069 3070 3071 3071 3071 3072 3072 3072 3072 3073 3073 3073 3073 3072 3072 3071 3071 3070 3069 3068 3067 3066 3066 3065 3064 3063 3062 3062 3061 3060 3059 3058 3057 3057 3056 3055 3055 3054 3053 3052 3051 3050 3049 3048 3046 3045 3044 3044 3043 3042 3040 3039 3037 3037 3036 3036 3034 3033 3032 3032
3067 3067 3067 3067 3067 3066 3066 3067 3067 3067 3067 3067 3067 3066 3066 3066 3066 3066 3066 3066 3067 3067 3067 3068 3068 3068 3068 3069 3070 3070 3070 3071 3071 3071 3072 3072 3071 3071 3071 3070 3070 3069 3068 3067 3066 3065 3064 3064 3063 3063 3062 3062 3061 3060 3059 3059 3058 3057 3056 3055 3055 3054 3053 3052 3051 3050 3049 3048 3047 3045 3044 3043 3042 3042 3041 3040 3038 3037 3036 3035 3035 3034 3033 3032 3031
3066 3066 3067 3067 3066 3065 3065 3066 3066 3066 3066 3066 3065 3065 3065 3065 3064 3065 3065 3065 3066 3066 3066 3066 3066 3067 3067 3067 3068 3068 3069 3069 3070 3070 3071 3070 3070 3070 3069 3068 3068 3067 3066 3065 3065 3064 3063 3063 3062 3062 3061 3061 3060 3059 3059 3058 3057 3056 3056 3055 3054 3053 3052 3051 3050 3049 3048 3047 3046 3044 3043 3042 3041 3041 3040 3039 3038 3037 3035 3034 3034 3033 3032 3032 3031
3065 3066 3066 3066 3065 3064 3064 3065 3065 3065 3065 3064 3064 3064 3063 3063 3063 3063 3063 3063 3064 3064 3064 3064 3064 3064 3065 3066 3066 3067 3068 3068 3069 3069 3069 3069 3069 3068 3068 3067 3066 3066 3065 3065 3064 3063 3063 3062 3062 3061 3060 3060 3059 3059 3058 3057 3057 3056 3055 3054 3053 3052 3051 3050 3049 3048 3047 3046 3045 3044 3042 3041 3041 3040 3039 3038 3037 3036 3035 3034 3033 3033 3032 3032 3031
3065 3065 3065 3065 3064 3064 3063 3064 3064 3064 3064 3063 3063 3062 3062 3061 3061 3061 3061 3061 3061 3062 3062 3062 3062 3063 3063 3064 3065 3066 3067 3067 3068 3068 3068 3068 3067 3067 3066 3066 3066 3065 3065 3064 3064 3063 3062 3062 3061 3061 3060 3059 3059 3058 3057 3057 3056 3055 3054 3053 3052 3051 3050 3049 3047 3046 3045 3044 3044 3043 3042 3041 3040 3039 3038 3037 3037 3036 3035 3034 3033 3032 3032 3031 3031
3064 3064 3064 3064 3064 3063 3063 3063 3063 3063 3062 3062 3061 3061 3060 3060 3059 3059 3059 3059 3059 3059 3060 3060 3060 3061 3062 3063 3064 3065 3065 3066 3067 3067 3067 3066 3066 3066 3066 3066 3065 3065 3064 3064 3064 3063 3062 3062 3061 3060 3060 3059 3058 3057 3057 3056 3055 3054 3053 3052 3051 3050 3049 3048 3047 3046 3044 3043 3043 3042 3041 3040 3039 3038 3037 3037 3036 3035 3035 3034 3033 3032 3032 3031 3031
3062 3062 3062 3063 3063 3062 3062 3061 3061 3061 3061 3061 3060 3059 3059 3058 3058 3058 3057 3057 3057 3057 3058 3058 3059 3060 3061 3062 3063 3064 3065 3065 3065 3066 3066 3066 3065 3065 3065 3065 3065 3065 3064 3064 3063 3063 3062 3062 3061 3060 3059 3059 3058 3057 3056 3055 3054 3053 3052 3051 3050 3049 3048 3047 3046 3045 3044 3043 3042 3041 3040 3039 3038 3038 3037 3036 3036 3035 3034 3034 3033 3032 3032 3032 3031
3060 3061 3061 3061 3061 3061 3061 3060 3060 3060 3060 3059 3059 3058 3058 3057 3056 3056 3056 3056 3056 3056 3056 3057 3057 3058 3059 3061 3062 3063 3064 3064 3065 3065 3065 3065 3065 3065 3065 3065 3065 3064 3064 3063 3063 3063 3062 3062 3061 3060 3059 3058 3057 3056 3055 3055 3054 3053 3052 3051 3050 3049 3048 3047 3046 3045 3044 3043 3042 3041 3040 3039 3038 3037 3037 3036 3036 3035 3034 3034 3033 3032 3032 3031 3031
3059 3059 3059 3059 3059 3059 3059 3059 3058 3058 3058 3058 3058 3057 3057 3056 3056 3055 3055 3055 3055 3055 3055 3056 3056 3057 3058 3059 3060 3062 3063 3063 3064 3064 3064 3065 3065 3065 3064 3064 3064 3064 3064 3063 3063 3063 3062 3062 3061 3060 3059 3058 3057 3056 3055 3054 3054 3053 3052 3051 3050 3049 3048 3047 3045 3044 3043 3043 3042 3041 3040 3039 3038 3037 3037 3036 3036 3035 3034 3034 3033 3032 3032 3031 3030